Location: Bo?a Wola
(50.4192°N, 19.7966°E)
Time: 12:40:53
(UTC+00:00)

Cosmos 921 Rocket - Pass Details

Date: 15 June 2024
Orbit: 568 x 625 km, 75.8° (Epoch: 15 July)

Event Time Altitude Azimuth Distance (km) Brightness Sun altitude
Rises 00:40:34 0° 341° (NNW) 2,835 7.2 -11.7°
Reaches altitude 10° 00:42:51 10° 347° (NNW) 1,920 6.3 -11.5°
Maximum altitude 00:47:02 54° 65° (ENE) 712 3.7 -11.2°
Drops below altitude 10° 00:51:08 10° 143° (SE) 1,878 5.3 -10.9°
Sets 00:53:21 0° 148° (SSE) 2,767 6.1 -10.7°
